星链-35195(STARLINK-35195)

导读 | 豆包AI

STARLINK-35195是美国SpaceX星链星座的卫星,于2025年9月13日发射。星链项目旨在构建全球卫星互联网,为偏远地区、地面网络覆盖盲区提供高速宽带服务,该卫星是星链低轨卫星组网持续扩张的一员,助力完善全球卫星通信覆盖网络,进一步拓展星链星座服务范围与通信能力。

基本信息
目录编号:
65606
目录名称:
STARLINK-35195
国际标识:
2025-207Q
轨道中心:
EARTH
卫星名称:
星链-35195
卫星全名:
星链-35195(STARLINK-35195)
卫星状态:
在轨 (已飞行182 天)
发射日期:
2025-09-13 UTC
国别 :
美国 (US)
星等 :
--
轨道信息
数据来源 国际轨道数据
星历时间: 2026-03-14T06:09:43+0800
12小时前
查看轨道信息
半长轴: 6927.612km
偏心率: 0.0000676
轨道倾角: 97.604°
近地点辐角 130.593°
升交点赤经 142.916°
平近点角 229.535°
近地点: 549.006km
远地点: 549.944km
周期: 95.639分钟
每日圈数: 15.056618
详细信息
固有亮度:
5
最大亮度:
2.5
卫星平台:
Starlink V1.0
覆盖范围:
全球
运营商:
太空探索技术公司
运营商所在国:
美国
制造商(研发单位):
太空探索技术公司
制造商所在国:
美国
使用方式:
暂无
卫星简介
Starlink 计划是 SpaceX 推出的全球卫星互联网项目,通过发射低轨道卫星,为全球尤其是偏远地区提供高速、低延迟的互联网服务。自 2019 年起,Starlink 已部署数千颗卫星,旨在缩小全球数字鸿沟,推动互联网普及。该项目还为军事、航空等行业提供通信支持,带来广泛经济效益。
2D轨道图
3D轨道图
轨道高度分析图
轨道倾角分析图
轨道综合分析图
查看轨道综合分析图